Location: ČR
(50.0000°N, 15.0000°E)
Time: 20:49:40
(UTC+00:00)

Vanguard 3 - Pass Details

Date: 25 October 2021
Orbit: 508 x 3260 km, 33.4° (Epoch: 04 December)

Event Time Altitude Azimuth Distance (km) Brightness Sun altitude
Rises 18:53:42 0° 252° (WSW) 3,987 11.4 -30.0°
Reaches altitude 10° 18:56:32 10° 239° (WSW) 3,357 10.7 -30.5°
Maximum altitude 19:03:36 27° 186° (S) 3,030 9.8 -31.6°
Enters shadow 19:05:47 25° 171° (S) 3,317 9.9 -31.9°
Drops below altitude 10° 19:14:13 10° 138° (SE) 5,175 - -33.1°
Sets 19:20:00 0° 128° (SE) 6,611 - -34.0°
